Weather History for Copper Mountain, CO

Change the Weather History Date:

Wednesday, March 27, 2013

  Actual Average (KLXV) Record (KLXV)
Temperature  
Mean Temperature 30 °F -  
Max Temperature 37 °F 39 °F 54 °F (1986)
Min Temperature 23 °F 14 °F -3 °F (1983)
Degree Days  
Heating Degree Days 35 39  
Month to date heating degree days 1120  
Since 1 July heating degree days 8830  
Cooling Degree Days 0 0  
Month to date cooling degree days 0  
Year to date cooling degree days 0  
Moisture  
Dew Point 17 °F    
Average Humidity 63    
Maximum Humidity 86    
Minimum Humidity 41    
Precipitation  
Precipitation 0.01 in 0.03 in 0.47 in (1985)
Month to date precipitation 0.80  
Year to date precipitation 2.12  
Sea Level Pressure  
Sea Level Pressure 30.15 in    
Wind  
Wind Speed 14 mph (WSW)    
Max Wind Speed 29 mph    
Max Gust Speed 38 mph    
Visibility 7 miles    
Events Snow    
T = Trace of Precipitation, MM = Missing Value Source: NWS Daily Summary

Daily Weather History Graph

Daily Weather History Graph

Search for Another Location

Airport:

Trip Planner

Search our weather history database for the weather conditions in past years. The results will help you decide how hot, cold, wet, or windy it might be!

Date:

Astronomy

Mar. 27, 2013 Rise Set
Actual Time 6:56 AM MDT 7:23 PM MDT
Civil Twilight 6:29 AM MDT 7:50 PM MDT
Nautical Twilight 5:57 AM MDT 8:22 PM MDT
Astronomical Twilight 5:25 AM MDT 8:55 PM MDT
Moon 8:10 PM MDT (3/27) 6:49 AM MDT (3/27)
Length of Visible Light 13h 21m
Length of Day
12h 27m
Full, 100% of the Moon is Illuminated
Mar 27
Full
Apr 2
Last Quarter
Apr 10
New
Apr 18
First Quarter
Apr 25
Full

Hourly Weather History & Observations

Time (MDT) Temp. Windchill Dew Point Humidity Pressure Visibility Wind Dir Wind Speed Gust Speed Precip Events Conditions
12:12 AM 24.8 °F 14.6 °F 17.6 °F 74% 30.08 in 7.0 mi SSW 10.4 mph 21.9 mph N/A   Overcast
12:32 AM 24.8 °F 11.9 °F 17.6 °F 74% 30.08 in 5.0 mi SW 16.1 mph - N/A Snow Light Snow
12:52 AM 24.8 °F 14.0 °F 17.6 °F 74% 30.08 in 2.5 mi SSW 11.5 mph 23.0 mph N/A Snow Light Snow
1:12 AM 24.8 °F 11.5 °F 15.8 °F 69% 30.07 in 7.0 mi SW 17.3 mph 24.2 mph N/A   Mostly Cloudy
1:32 AM 24.8 °F 11.9 °F 17.6 °F 74% 30.07 in 1.8 mi SW 16.1 mph 26.5 mph N/A Snow Light Snow
1:52 AM 24.8 °F 11.9 °F 17.6 °F 74% 30.07 in 4.0 mi SW 16.1 mph 19.6 mph N/A Snow Light Snow
2:12 AM 24.8 °F 13.4 °F 15.8 °F 69% 30.06 in 5.0 mi South 12.7 mph 17.3 mph N/A Snow Light Snow
2:32 AM 24.8 °F 13.4 °F 17.6 °F 74% 30.06 in 4.0 mi SSW 12.7 mph 19.6 mph N/A Snow Light Snow
2:52 AM 24.8 °F 11.1 °F 17.6 °F 74% 30.05 in 3.0 mi South 18.4 mph - N/A Snow Light Snow
3:12 AM 24.8 °F 13.4 °F 17.6 °F 74% 30.05 in 3.0 mi SSW 12.7 mph 21.9 mph N/A   Haze
3:32 AM 24.8 °F 16.1 °F 17.6 °F 74% 30.05 in 2.5 mi SW 8.1 mph 19.6 mph N/A Snow Light Snow
3:52 AM 24.8 °F 12.9 °F 17.6 °F 74% 30.05 in 5.0 mi WSW 13.8 mph 23.0 mph N/A Snow Light Snow
4:12 AM 24.8 °F 11.9 °F 17.6 °F 74% 30.05 in 7.0 mi West 16.1 mph 21.9 mph N/A Snow Light Snow
4:32 AM 24.8 °F 12.9 °F 19.4 °F 80% 30.07 in 0.2 mi West 13.8 mph 24.2 mph N/A Snow Snow
4:52 AM 24.8 °F 11.1 °F 19.4 °F 80% 30.07 in 2.5 mi West 18.4 mph - N/A Snow Light Snow
5:12 AM 24.8 °F 11.9 °F 19.4 °F 80% 30.07 in 0.8 mi West 16.1 mph - N/A Snow Light Snow
5:32 AM 23.0 °F 17.0 °F 17.6 °F 80% 30.07 in 1.0 mi SW 4.6 mph - N/A Snow Light Snow
5:52 AM 23.0 °F 11.1 °F 17.6 °F 80% 30.08 in 0.8 mi West 12.7 mph - N/A Snow Light Snow
6:12 AM 23.0 °F 11.7 °F 17.6 °F 80% 30.09 in 2.5 mi West 11.5 mph - N/A Snow Light Snow
6:32 AM 23.0 °F - 17.6 °F 80% 30.09 in 0.2 mi North - - N/A Snow Light Snow
6:52 AM 23.0 °F 10.1 °F 17.6 °F 80% 30.09 in 7.0 mi WSW 15.0 mph 20.7 mph N/A   Mostly Cloudy
7:12 AM 23.0 °F 15.8 °F 17.6 °F 80% 30.10 in 10.0 mi West 5.8 mph 23.0 mph N/A   Mostly Cloudy
7:32 AM 23.0 °F 13.9 °F 17.6 °F 80% 30.11 in 0.5 mi West 8.1 mph - N/A   Haze
7:52 AM 23.0 °F 13.1 °F 17.6 °F 80% 30.12 in 0.2 mi West 9.2 mph - N/A Snow Light Snow
8:12 AM 23.0 °F 14.7 °F 17.6 °F 80% 30.12 in 0.2 mi WSW 6.9 mph - N/A Snow Light Snow
8:32 AM 23.0 °F 9.6 °F 17.6 °F 80% 30.12 in 10.0 mi West 16.1 mph 21.9 mph N/A   Mostly Cloudy
8:52 AM 23.0 °F 11.7 °F 19.4 °F 86% 30.12 in 10.0 mi WSW 11.5 mph 17.3 mph N/A   Scattered Clouds
9:12 AM 24.8 °F 11.9 °F 19.4 °F 80% 30.12 in 10.0 mi West 16.1 mph 21.9 mph N/A   Scattered Clouds
9:32 AM 26.6 °F 14.3 °F 17.6 °F 69% 30.13 in 10.0 mi West 16.1 mph 20.7 mph N/A   Scattered Clouds
9:52 AM 28.4 °F 19.7 °F 17.6 °F 64% 30.15 in 10.0 mi West 9.2 mph 23.0 mph N/A   Clear
10:12 AM 28.4 °F 15.8 °F 17.6 °F 64% 30.15 in 10.0 mi West 18.4 mph 24.2 mph N/A   Mostly Cloudy
10:32 AM 28.4 °F 15.1 °F 17.6 °F 64% 30.15 in 2.5 mi West 20.7 mph 35.7 mph N/A   Haze
10:52 AM 30.2 °F 18.1 °F 17.6 °F 60% 30.16 in 10.0 mi WSW 18.4 mph 26.5 mph N/A   Mostly Cloudy
11:12 AM 30.2 °F 18.5 °F 17.6 °F 60% 30.17 in 10.0 mi West 17.3 mph 25.3 mph N/A   Overcast
11:32 AM 30.2 °F 17.4 °F 17.6 °F 60% 30.17 in 10.0 mi West 20.7 mph 26.5 mph N/A   Overcast
11:52 AM 30.2 °F 15.4 °F 17.6 °F 60% 30.17 in 1.5 mi West 28.8 mph 38.0 mph N/A Snow Light Snow
12:12 PM 30.2 °F 18.9 °F 17.6 °F 60% 30.18 in 7.0 mi West 16.1 mph 26.5 mph N/A   Mostly Cloudy
12:32 PM 32.0 °F 20.5 °F 17.6 °F 55% 30.18 in 10.0 mi West 18.4 mph 23.0 mph N/A   Overcast
12:52 PM 32.0 °F 22.1 °F 19.4 °F 60% 30.18 in 10.0 mi West 13.8 mph 20.7 mph N/A   Overcast
1:12 PM 30.2 °F 21.9 °F 19.4 °F 64% 30.19 in 10.0 mi West 9.2 mph 19.6 mph N/A   Overcast
1:32 PM 32.0 °F 22.1 °F 21.2 °F 64% 30.18 in 3.0 mi West 13.8 mph 20.7 mph N/A Snow Light Snow
1:52 PM 30.2 °F 19.3 °F 19.4 °F 64% 30.18 in 3.0 mi West 15.0 mph 20.7 mph N/A Snow Light Snow
2:12 PM 33.8 °F 22.8 °F 21.2 °F 60% 30.18 in 7.0 mi West 18.4 mph - 0.01 in   Overcast
2:32 PM 33.8 °F 22.5 °F 19.4 °F 56% 30.17 in 10.0 mi West 19.6 mph 25.3 mph 0.01 in   Overcast
2:52 PM 35.6 °F 27.1 °F 17.6 °F 48% 30.18 in 10.0 mi West 12.7 mph 20.7 mph 0.01 in   Mostly Cloudy
3:12 PM 33.8 °F 21.9 °F 14.0 °F 44% 30.17 in 10.0 mi West 21.9 mph 29.9 mph N/A   Overcast
3:32 PM 33.8 °F 23.5 °F 14.0 °F 44% 30.18 in 10.0 mi West 16.1 mph 26.5 mph N/A   Mostly Cloudy
3:52 PM 37.4 °F 26.9 °F 17.6 °F 45% 30.18 in 10.0 mi West 20.7 mph 27.6 mph N/A   Mostly Cloudy
4:12 PM 35.6 °F 28.6 °F 21.2 °F 56% 30.18 in 10.0 mi West 9.2 mph 23.0 mph N/A   Overcast
4:32 PM 33.8 °F 23.5 °F 14.0 °F 44% 30.18 in 10.0 mi West 16.1 mph 26.5 mph N/A   Mostly Cloudy
4:52 PM 33.8 °F 21.6 °F 19.4 °F 56% 30.18 in 4.0 mi West 23.0 mph 27.6 mph N/A Snow Light Snow
5:12 PM 33.8 °F 22.8 °F 17.6 °F 52% 30.19 in 10.0 mi West 18.4 mph 24.2 mph N/A   Overcast
5:32 PM 33.8 °F 22.8 °F 17.6 °F 52% 30.19 in 10.0 mi West 18.4 mph 24.2 mph N/A   Overcast
5:52 PM 32.0 °F 22.1 °F 19.4 °F 60% 30.20 in 10.0 mi West 13.8 mph - N/A   Scattered Clouds
6:12 PM 32.0 °F 22.5 °F 17.6 °F 55% 30.20 in 10.0 mi West 12.7 mph 19.6 mph N/A   Mostly Cloudy
6:32 PM 32.0 °F 23.0 °F 19.4 °F 60% 30.20 in 10.0 mi West 11.5 mph - N/A   Mostly Cloudy
6:52 PM 30.2 °F 19.8 °F 15.8 °F 55% 30.21 in 10.0 mi West 13.8 mph - N/A   Mostly Cloudy
7:12 PM 30.2 °F 20.2 °F 14.0 °F 51% 30.21 in 10.0 mi WSW 12.7 mph 19.6 mph N/A   Scattered Clouds
7:32 PM 30.2 °F 19.8 °F 12.2 °F 47% 30.21 in 10.0 mi WSW 13.8 mph 17.3 mph N/A   Clear
7:52 PM 30.2 °F 19.8 °F 12.2 °F 47% 30.21 in 10.0 mi SW 13.8 mph 19.6 mph N/A   Clear
8:12 PM 30.2 °F 20.2 °F 12.2 °F 47% 30.22 in 10.0 mi SW 12.7 mph - N/A   Clear
8:32 PM 30.2 °F 20.8 °F 12.2 °F 47% 30.22 in 10.0 mi WSW 11.5 mph 19.6 mph N/A   Clear
8:52 PM 30.2 °F 22.6 °F 12.2 °F 47% 30.23 in 10.0 mi SW 8.1 mph - N/A   Clear
9:12 PM 28.4 °F 18.0 °F 12.2 °F 51% 30.23 in 10.0 mi South 12.7 mph 16.1 mph N/A   Clear
9:32 PM 28.4 °F 17.0 °F 12.2 °F 51% 30.23 in 10.0 mi South 15.0 mph - N/A   Clear
9:52 PM 30.2 °F 19.3 °F 12.2 °F 47% 30.24 in 10.0 mi South 15.0 mph - N/A   Clear
10:12 PM 30.2 °F 19.8 °F 12.2 °F 47% 30.24 in 10.0 mi South 13.8 mph - N/A   Clear
10:32 PM 30.2 °F 19.8 °F 10.4 °F 44% 30.24 in 10.0 mi South 13.8 mph - N/A   Clear
10:52 PM 30.2 °F 20.8 °F 10.4 °F 44% 30.24 in 10.0 mi South 11.5 mph - N/A   Clear
11:12 PM 30.2 °F 22.6 °F 10.4 °F 44% 30.24 in 10.0 mi SSW 8.1 mph - N/A   Scattered Clouds
11:32 PM 30.2 °F 21.3 °F 10.4 °F 44% 30.24 in 10.0 mi SSW 10.4 mph 16.1 mph N/A   Mostly Cloudy
11:52 PM 32.0 °F 24.2 °F 10.4 °F 41% 30.24 in 10.0 mi SSW 9.2 mph - N/A   Mostly Cloudy